Weather in Kablukovo

Russia / Yaroslavl Oblast     57°15′38″N   38°30′20″E
temp.,
°C
wind,
m/s
gust,
m/s
humid.,
%
clouds,
%
prec.,
mm/h
press.,
hPa
HPBL,
m
7 march, sun
sun700:00−12ssw39910 0.0 1009197
03:00−10ssw5138648 0.0 1005483
06:00−8ssw61493100 0.5 999829
09:00−6ssw71392100 2.3 9941039
12:00−3ssw71294100 2.1 9901024
15:00−5w71279100 4.5 9891253
18:00−8wsw4127767 0.0 990362
21:00−10wsw4138349 0.1 991478
8 march, mon
mon800:00−10wsw5138865 0.0 991581
03:00−9w5138983 0.0 991647
06:00−10w51194100 0.4 991575
09:00−9nnw51092100 1.0 995697
12:00−9nnw5890100 0.2 999745
15:00−10nnw5989100 0.4 1002751
18:00−12nnw41092100 0.1 1006635
21:00−14nnw41095100 0.2 1009416
9 march, tue
tue900:00−18nnw3798100 0.1 1011191
03:00−21nnw2510096 0.1 1013120
06:00−24nnw2510093 0.0 1015101
09:00−22nnw369678 0.0 1017248
12:00−18nw359277 0.0 1018418
15:00−17nw368988 0.0 1019585
18:00−20nnw2397100 0.0 101974
21:00−25nnw239871 0.0 102254
10 march, wed
wed1000:00−26nnw2210048 0.0 102320
03:00−28n229936 0.0 102519
06:00−30n22997 0.0 102519
09:00−26n24973 0.0 1027151
12:00−19n23832 0.0 1028389
15:00−16nnw22781 0.0 1028570
18:00−20nw229247 0.0 102720
21:00−23wnw129256 0.0 102820
11 march, thu
thu1100:00−24wnw128859 0.0 102820
03:00−24w128557 0.0 102920
06:00−25wsw118215 0.0 102920
09:00−20ssw12817 0.0 102995
12:00−12s23750 0.0 1028322
15:00−10sse35750 0.0 1026703
18:00−13sse38860 0.0 1024186
21:00−15sse414880 0.0 1023440